Regional Weather Roundup
Issued by NWS

Home | Current Version | Previous Version | Text Only | Print | Product List | Glossary Off
Versions: 1 2 3 4 5 6 7 8 9 10 11 12 13 14 15 16 17 18 19 20 21 22 23 24 25 26 27 28 29 30 31 32 33 34 35 36 37 38 39 40 41 42 43 44 45 46 47 48 49 50

000
ASUS45 KTFX 050510
RWRMT
MONTANA REGIONAL WEATHER ROUNDUP
NATIONAL WEATHER SERVICE GREAT FALLS MT
1100 PM MDT FRI SEP 04 2015

NOTE: "FAIR" INDICATES FEW OR NO CLOUDS BELOW 12000 FEET WITH NO
SIGNIFICANT WEATHER AND/OR OBSTRUCTIONS TO VISIBILITY.

MTZ001>007-043-050600-
WEST OF THE DIVIDE

CITY           SKY/WX    TMP DP  RH WIND       PRES   REMARKS
KALISPELL      MOCLDY    53  37  54 NE16G23   29.93F
MISSOULA       CLOUDY    57  42  57 VRB3      29.87F
BUTTE          CLOUDY    46  42  86 E3        29.93F
MULLAN PASS    LGT RAIN  41  38  89 VRB6      29.89F
EUREKA           N/A     55  37  50 E7G16     29.97
HAMILTON         N/A     55  43  62 NW3       29.85R
LIBBY            N/A     59  37  44 N5        29.92S
PLAINS           N/A     60  40  47 CALM      29.87F
$$

MTZ008-052>055-050600-
SOUTHWEST MONTANA

CITY           SKY/WX    TMP DP  RH WIND       PRES   REMARKS
BOZEMAN        CLOUDY    53  48  83 S8        29.93R
DILLON         CLOUDY    49  41  74 E7        29.90R
W YELLOWSTONE  CLOUDY    48  46  93 S5        29.94R
$$

MTZ009-010-012-014-046-048-049-054-050600-
EAST SLOPES AND CENTRAL MONTANA

CITY           SKY/WX    TMP DP  RH WIND       PRES   REMARKS
CUT BANK       CLOUDY    45  44  97 N14       30.05S
GREAT FALLS    LGT RAIN  48  47  96 N13       30.00F
MALMSTROM AFB  LGT RAIN  50  50 100 N13       30.01F
HELENA         CLOUDY    50  45  83 NW12      29.94F
CONRAD           N/A     47  47 100 W6        30.05F
$$

MTZ011-013-016-021-045-047-050-051-050600-
NORTH CENTRAL MONTANA

CITY           SKY/WX    TMP DP  RH WIND       PRES   REMARKS
HAVRE          CLOUDY    52  50  93 E12       30.01R
LEWISTOWN      CLOUDY    53  48  83 SE7       29.98F
N BAR RANCH    DRIZZLE   50  48  93 E7        30.00F
CHINOOK          N/A     52  48  87 E3        30.03R
FORT BENTON      N/A     54  52  94 NW5       30.02R
$$

MTZ017>020-022>027-061-062-050600-
NORTHEAST MONTANA

CITY           SKY/WX    TMP DP  RH WIND       PRES   REMARKS
GLASGOW        CLOUDY    57  45  64 NE22G29   29.95R
JORDAN           N/A     59  47  64 N23G30    29.92F
SIDNEY         CLOUDY    66  57  72 N10         N/A
WOLF POINT     CLOUDY    64  47  53 NE18      29.92F
MALTA            N/A     53  44  71 NE7       29.99S
PLENTYWOOD       N/A     61  48  63 N15       29.96R
POPLAR           N/A     63  50  63 N14       29.94R
$$

MTZ028>42-056>058-050600-
SOUTHCENTRAL AND SOUTHEAST MONTANA

CITY           SKY/WX    TMP DP  RH WIND       PRES   REMARKS
BAKER          LGT RAIN  67  63  87 SW13      29.95R
BILLINGS       CLOUDY    57  47  69 NE9       29.95F
LIVINGSTON     MOCLDY    54  47  77 E18G29    29.94R
MILES CITY     MOCLDY    64  58  80 N9        29.85F
EKALAKA          N/A     59  55  86 NW3       29.91R
FORSYTH          N/A     64  54  68 W5        29.88S
LAUREL           N/A     57  46  66 N2        29.95R
$$

REGIONAL REPORTS...DAKOTAS

CITY           SKY/WX    TMP DP  RH WIND       PRES   REMARKS
WILLISTON      CLOUDY    60  58  92 NE9       29.93S FOG
MINOT          CLOUDY    60  59  96 N12       29.89F FOG
DICKINSON      CLOUDY    63  59  87 NE14      29.85S
CROSBY         CLOUDY    59  55  88 NE9       29.96S
BISMARCK       CLEAR     70  66  87 NE5       29.81F
GRAND FORKS    CLEAR     66  64  93 NE6       29.84R
FARGO          CLEAR     75  69  81 S12       29.83R
BUFFALO SD       N/A     72  57  59 W32G48    29.83R
RAPID CITY     PTCLDY    69  58  67 S3        29.81S
$$

REGIONAL REPORTS...WYOMING/IDAHO/WASHINGTON

CITY           SKY/WX    TMP DP  RH WIND       PRES   REMARKS
GILLETTE       MOCLDY    61  52  72 W5        29.88S
SHERIDAN       MOCLDY    59  53  80 W5        29.92F
BUFFALO WY     PTCLDY    59  50  72 NW14G28   29.94F
CODY           MOCLDY    54  43  66 NW12      29.97S
YELLOWSTONE LA   N/A     48  41  76 CALM      30.00F
IDAHO FALLS    MOCLDY    65  45  48 E9        29.76S
SALMON         CLOUDY    48  46  93 CALM      29.84F
BOISE          CLOUDY    56  43  61 VRB6      29.84F
SPOKANE        CLOUDY    62  32  32 N12       29.82S
$$

REGIONAL REPORTS...ALBERTA

CITY           SKY/WX    TMP DP  RH WIND       PRES   REMARKS
EDMONTON       CLOUDY    48  41  76 SW2       30.19R
CALGARY        LGT RAIN  43  41  93 N12       30.16S FOG
LETHBRIDGE     LGT RAIN  46  46 100 N12G31    30.06S FOG
MEDICINE HAT   CLOUDY    48  45  87 NE9       30.09R
WATERTON GATE    N/A     41  39  93 N2          N/A
CARDSTON         N/A     41  41 100 NW8         N/A
ONEFOUR          N/A     50  46  87 NE10        N/A
$$

REGIONAL REPORTS...SASKATCHEWAN

CITY           SKY/WX    TMP DP  RH WIND       PRES   REMARKS
SWIFT CURRENT  CLOUDY    48  46  93 E14G20    30.07R
REGINA         CLOUDY    52  45  76 NE10      30.05R
SASKATOON      CLOUDY    50  45  81 N10       30.14R
CYPRESS HILLS    N/A     43  41  93 NE7         N/A
VAL MARIE        N/A     50  46  87 NE16G22     N/A
ROCKGLEN         N/A     48  46  93 N14G21      N/A
$$


USA.gov is the U.S. government's official web portal to all federal, state and local government web resources and services.